Simultaneous Nadir Overpasses (SNOs) Predictions

Prediction of SNOs between AQUA and GOES-15 Satellite Orbit:

Table of predicted SNOs for the next 14.0 days since TLE Epoch: 8/8/2025
Index Date Time (AQUA) AQUA Lat,Lon GOES-15 Lat,Lon Distance(km) Time Diff (sec)
1 08/08/2025 22:51:00 -0.09, 59.52 -0.50, 61.53 228.64 80
2 08/10/2025 22:30:32 -1.16, 64.53 -0.50, 61.57 337.97 80
3 08/11/2025 10:49:47 0.14, 59.88 0.50, 61.54 188.42 80
4 08/13/2025 10:29:19 1.24, 64.89 0.50, 61.57 378.54 80
5 08/13/2025 22:48:25 -0.19, 60.29 -0.50, 61.61 150.98 80
6 08/15/2025 22:27:56 -1.26, 65.30 -0.50, 61.65 414.60 80
7 08/16/2025 10:47:12 0.31, 60.64 0.50, 61.64 112.84 80
8 08/18/2025 10:26:42 1.35, 65.67 0.51, 61.69 452.49 80
9 08/18/2025 22:45:49 -0.37, 61.05 -0.50, 61.72 76.51 80
10 08/20/2025 22:25:19 -1.43, 66.07 -0.52, 61.78 488.06 80
11 08/21/2025 10:44:33 0.44, 61.42 0.51, 61.77 40.08 80
